Miscellaneous Local Product
Issued by NWS Hastings, NE

Home | Current Version | Previous Version | Graphics & Text | Print | Product List | Glossary On
Versions: 1 2 3 4 5 6 7 8 9 10 11 12 13 14 15 16 17 18 19 20 21 22 23 24 25 26 27 28 29 30 31 32 33 34 35 36 37 38 39 40 41 42 43 44 45 46 47 48 49 50
340
AXUS43 KGID 191702
MISGRI

GID CWA HOURLY WEATHER ROUNDUP
NATIONAL WEATHER SERVICE HASTINGS NE
1200 PM CDT SAT AUG 19 2017

NOTE: "FAIR" INDICATES FEW OR NO CLOUDS BELOW 12,000 FEET WITH NO
SIGNIFICANT WEATHER AND/OR OBSTRUCTIONS TO VISIBILITY.

...SOUTH CENTRAL NEBRASKA...

CITY           SKY/WX    TMP DP  RH WIND       PRES   REMARKS
GRAND ISLAND   SUNNY     79  67  66 SE13      29.98F
HASTINGS       SUNNY     81  67  62 SE8       29.99F
KEARNEY        SUNNY     82  69  64 S13       29.97F
ORD            SUNNY     81  62  52 S12       29.93F
YORK           SUNNY     75  66  73 SE7       29.98F
AURORA         SUNNY     77  68  73 SE7       29.98F
LEXINGTON      SUNNY     82  67  59 S12       29.97S
HOLDREGE       SUNNY     80  65  61 S14       29.97F
HEBRON         SUNNY     83  67  57 CALM      29.98F

...NEBRASKA PANHANDLE...

CITY           SKY/WX    TMP DP  RH WIND       PRES   REMARKS
CHADRON        SUNNY     83  50  31 W6        29.90F
ALLIANCE       SUNNY     84  47  27 W14       29.95S
SCOTTSBLUFF    SUNNY     83  47  28 NW10      29.97F
SIDNEY         SUNNY     88  51  28 W3        30.01F

...WESTERN AND NORTH CENTRAL NEBRASKA...

CITY           SKY/WX    TMP DP  RH WIND       PRES   REMARKS
VALENTINE      SUNNY     87  53  31 S17       29.88F
AINSWORTH      SUNNY     80  60  48 S15       29.92F
ONEILL         SUNNY     78  62  56 S14       29.95F
BROKEN BOW     SUNNY     85  59  41 S17G24    29.95F
IMPERIAL       SUNNY     85  63  47 S13       29.98F
NORTH PLATTE   SUNNY     84  68  58 S10       29.94F
MCCOOK         SUNNY     89  68  49 S13       29.96F HX  93

...EASTERN NEBRASKA...

CITY           SKY/WX    TMP DP  RH WIND       PRES   REMARKS
NORFOLK        SUNNY     77  62  59 SE7       29.96F
SO SIOUX CITY  SUNNY     75  65  70 SE6       29.97S
TEKAMAH        SUNNY     74  64  71 CALM      29.97F
COLUMBUS       SUNNY     76  65  68 E8        29.98F
ALBION         SUNNY     76  65  69 SE9       29.96F
OMAHA EPPLEY   SUNNY     80  62  54 CALM      29.98S
OFFUTT AFB     SUNNY     79  60  52 NE3       29.97F
MILLARD        SUNNY     80  61  52 CALM      29.98S
LINCOLN        SUNNY     80  59  48 E6        29.99S
NEBRASKA CITY  SUNNY     79  59  49 E5        29.99S
BEATRICE       SUNNY     83  65  55 SE6       29.98S
FALLS CITY     SUNNY     81  64  56 MISG      29.98S

...NORTHERN KANSAS...

CITY           SKY/WX    TMP DP  RH WIND       PRES   REMARKS
GOODLAND       SUNNY     86  66  51 S20G25    30.01F
HILL CITY      SUNNY     91  67  44 S15       29.97F HX  94
NORTON         SUNNY     88  61  40 SE14      29.97F
PHILLIPSBURG   SUNNY     84  66  54 SE9       29.97F
SMITH CENTER   PTSUNNY   81  68  65 SE9       29.98F
HAYS           SUNNY     90  69  50 SE10      29.97F HX  94
RUSSELL        SUNNY     89  68  49 SE13      29.96F HX  93
CONCORDIA      SUNNY     85  71  63 SE9       29.97F HX  90
SALINA         SUNNY     89  68  49 VRB7      29.97F HX  93
TOPEKA         SUNNY     86  71  60 SE5       29.97F HX  91



USA.gov is the U.S. government's official web portal to all federal, state and local government web resources and services.